Dewpoint
77 77 77 76 77 77 77 76 77 75 75 74 73 73 74 74 74 75 74 73 73 72 72 71 70 70 71 71 70 70 70 70 67 68 70 70 69 69 70 70 68 68 65
77 76 76 77 77 76 77 77 76 74 74 75 75 75 74 73 74 73 72 71 72 71 72 72 70 70 70 70 70 69 69 69 68 65 68 69 70 70 70 69 68 68 68
76 76 76 77 77 76 76 77 76 74 74 73 74 74 72 73 73 73 72 72 71 71 72 71 71 70 70 70 70 69 71 70 70 68 68 69 68 68 67 66 66 67 67
74 74 75 76 76 76 76 76 74 73 73 73 74 73 72 72 72 71 72 72 72 71 72 72 71 71 70 71 71 71 71 71 70 70 69 67 66 65 65 63 62 64 64
74 73 73 74 75 75 75 74 73 73 73 74 74 73 72 71 67 71 70 71 71 71 71 71 71 70 69 69 70 70 70 69 69 68 68 67 65 62 62 63 62 63 64
67 64 64 64 66 67 72 72 72 73 74 74 72 71 71 66 63 66 69 69 70 71 70 70 70 68 68 67 67 67 69 69 68 67 67 65 64 63 63 62 62 61 61
67 66 65 64 64 64 65 69 72 73 75 74 73 72 71 72 62 62 64 70 71 70 70 70 67 63 67 68 65 64 65 65 67 69 68 67 66 65 64 62 62 61 61
67 66 65 64 65 65 64 65 70 72 74 73 73 73 73 71 60 60 62 70 69 70 70 70 69 68 69 68 68 67 66 66 65 65 68 69 70 68 64 63 63 62 63
65 66 67 67 67 66 65 68 71 71 72 73 73 73 73 73 58 58 63 69 68 69 68 70 69 69 65 61 68 68 67 67 61 63 65 63 64 63 65 64 63 61 61
65 65 66 67 67 65 66 70 71 71 71 73 73 74 69 74 57 57 61 68 67 66 69 69 63 65 61 57 66 67 66 67 66 65 64 62 64 64 62 65 63 61 61
65 65 65 66 66 65 65 64 66 65 68 70 70 72 71 71 69 56 54 68 69 69 68 68 67 58 55 53 58 68 65 66 66 67 66 66 66 66 65 66 65 62 61
63 64 64 65 65 65 66 65 66 66 63 61 66 68 70 71 63 55 54 56 65 69 68 70 69 55 53 51 52 57 57 60 67 68 67 65 64 64 65 65 66 65 63
62 63 64 64 65 65 65 65 66 67 63 64 65 65 66 65 66 56 54 54 55 61 67 62 56 54 55 54 52 53 54 63 64 66 65 64 64 63 65 65 65 66 67
62 63 63 63 62 63 61 62 63 64 62 63 62 62 62 63 63 61 60 60 58 61 60 63 63 59 56 59 60 58 60 63 64 64 65 67 68 67 64 64 64 65 65
62 62 62 59 61 62 63 61 61 63 59 61 60 61 60 60 58 51 52 57 58 56 52 59 63 63 64 64 65 65 66 65 64 66 66 65 65 66 66 67 65 64 63
60 59 57 57 57 58 60 62 55 53 50 48 47 53 60 53 49 46 43 43 43 43 50 56 61 63 62 62 62 63 63 63 63 64 64 64 64 64 65 65 65 64 61
60 60 56 55 56 59 59 59 58 58 48 46 45 45 44 45 43 43 42 42 42 42 53 60 62 62 62 64 63 64 63 64 64 65 64 62 61 61 61 62 62 63 62
60 53 56 55 54 53 55 56 55 52 58 59 50 48 46 44 43 42 43 47 58 50 58 61 63 63 63 63 64 65 64 63 64 62 61 61 60 60 59 58 59 60 61
54 52 53 52 52 51 53 54 53 53 54 59 60 50 49 45 42 44 47 58 58 59 60 60 61 61 60 62 63 64 65 63 63 63 61 60 59 59 57 58 56 52 54
54 53 53 52 50 51 51 50 50 55 58 54 59 60 58 55 58 58 58 58 57 57 58 58 58 58 58 58 60 61 59 58 58 58 58 58 58 58 57 56 56 55 55
52 51 53 48 49 51 50 53 52 51 51 57 59 54 47 57 56 56 57 57 58 58 58 57 58 57 57 57 57 57 57 56 56 56 56 56 57 56 56 56 55 56 55
52 51 51 50 55 54 53 53 52 53 55 56 58 55 50 56 56 56 56 57 57 58 59 59 58 58 57 57 57 56 56 56 56 56 56 56 56 56 56 56 56 55 55
50 49 50 54 55 54 53 52 53 55 56 56 54 54 55 55 55 55 56 56 57 56 57 58 57 57 58 58 58 57 56 56 57 57 57 57 56 56 56 55 55 54 54
54 54 51 54 54 51 54 53 54 51 54 53 55 58 54 54 54 56 56 56 55 54 54 53 52 53 57 58 58 57 53 56 58 57 57 56 56 53 53 53 52 52 48
49 48 49 53 52 52 52 53 54 53 55 58 58 58 55 54 53 54 55 55 54 53 51 51 51 49 49 50 50 46 36 33 43 42 56 56 54 55 53 52 50 46 46
42 50 47 52 51 52 54 54 53 54 55 57 59 59 59 59 59 57 55 56 54 51 50 49 48 47 45 41 40 36 33 31 37 33 42 51 50 49 47 48 48 46 46
Lifted_Index
-10 -10 -10 -10 -10 -10 -10 -10 -9 -7 -6 -7 -7 -7 -7 -7 -7 -7 -6 -6 -5 -5 -5 -4 -3 -3 -3 -2 -2 -2 -2 -2 -2 -1 -2 -2 -2 -2 -2 -1 -1 1 1
-10 -10 -10 -10 -11 -11 -10 -10 -9 -7 -7 -7 -7 -7 -7 -7 -7 -6 -6 -5 -5 -5 -5 -4 -4 -3 -3 -3 -3 -2 -2 -2 -2 -2 -2 -2 -2 -2 -2 -1 -0 0 1
-10 -9 -10 -10 -11 -11 -10 -10 -8 -7 -7 -7 -8 -7 -7 -7 -6 -6 -6 -5 -5 -5 -5 -4 -4 -4 -4 -4 -3 -3 -3 -3 -3 -2 -2 -2 -2 -2 -1 -1 -0 -0 0
-9 -9 -9 -10 -10 -10 -10 -9 -8 -7 -7 -8 -8 -7 -6 -6 -6 -5 -5 -5 -4 -4 -4 -4 -4 -4 -4 -3 -3 -3 -3 -3 -3 -3 -3 -2 -2 -1 -1 -0 -0 -0 -0
-7 -8 -8 -8 -8 -8 -8 -9 -8 -8 -8 -8 -8 -7 -6 -5 -5 -5 -5 -4 -4 -4 -4 -4 -4 -3 -3 -3 -3 -3 -3 -3 -3 -3 -3 -2 -1 -1 -0 -0 -0 -1 -1
-5 -5 -5 -5 -3 -3 -5 -7 -7 -8 -9 -9 -8 -8 -7 -5 -4 -3 -4 -4 -4 -4 -4 -4 -4 -3 -3 -3 -2 -2 -2 -2 -2 -2 -2 -2 -1 -0 -0 -0 -1 -1 -1
-2 -2 -2 -1 1 1 -1 -4 -5 -7 -8 -8 -8 -8 -7 -6 -4 -3 -3 -3 -3 -3 -4 -4 -3 -3 -3 -3 -2 -2 -2 -2 -1 -2 -2 -2 -2 -1 -1 -0 -1 -1 -1
-2 -2 -1 1 2 2 1 -2 -4 -6 -7 -7 -8 -8 -8 -7 -6 -4 -3 -3 -3 -3 -3 -3 -3 -3 -3 -3 -3 -3 -2 -1 -1 -1 -2 -2 -2 -2 -2 -1 -0 -1 -1
-2 -2 -1 -1 -0 -1 -1 -2 -4 -5 -6 -7 -7 -8 -8 -7 -6 -5 -4 -3 -3 -3 -3 -3 -3 -3 -3 -2 -2 -3 -2 -2 -1 -1 -1 -1 -2 -2 -2 -1 -0 -0 -1
-1 -1 -1 -1 -2 -2 -3 -3 -4 -4 -5 -6 -7 -8 -7 -7 -6 -6 -5 -4 -4 -3 -3 -3 -2 -2 -2 -2 -2 -2 -2 -2 -2 -1 -1 -1 -1 -1 -1 -1 -0 -0 -0
0 0 0 -0 -0 -1 -2 -3 -3 -3 -4 -4 -5 -6 -6 -6 -6 -6 -5 -5 -4 -4 -3 -3 -2 -2 -2 -1 -1 -1 -1 -1 -1 -1 -1 -1 -1 -1 -0 -0 0 0 0
1 0 1 1 0 0 0 -0 -1 -1 -1 -2 -2 -3 -4 -4 -5 -5 -5 -4 -4 -4 -3 -2 -2 -1 -1 -1 -1 -1 -1 -1 -1 -1 -1 -1 -1 -1 -0 0 0 0 0
0 0 0 1 1 1 2 2 2 1 1 0 -0 -1 -2 -2 -3 -3 -3 -2 -2 -3 -2 -1 -0 -0 -0 -0 -0 -0 -0 -0 -0 -0 -1 -1 -1 -1 -1 -0 0 0 -0
0 1 1 1 2 2 3 4 3 3 2 1 1 1 0 -0 -0 -0 -0 0 -0 -1 -1 -0 1 1 1 1 1 1 1 1 0 -0 -1 -1 -1 -1 -1 -1 -1 -1 -1
1 1 1 2 2 2 2 3 3 3 3 2 2 2 2 2 2 2 2 2 2 1 1 1 2 2 2 2 2 2 2 2 1 1 0 -0 -1 -1 -1 -1 -1 -1 -1
1 1 1 2 2 1 1 1 1 1 2 2 2 2 2 3 3 3 3 3 3 2 2 2 2 2 2 2 2 2 2 2 2 2 1 1 0 -0 -0 -0 -0 -1 -1
2 2 2 2 2 1 1 -0 -0 0 0 0 1 1 2 2 3 3 3 3 3 2 2 2 2 2 2 2 2 2 2 2 2 2 1 1 1 0 0 0 0 0 0
2 2 2 2 2 2 2 1 1 1 0 -0 0 1 2 2 3 3 3 4 3 2 2 1 1 1 1 1 1 1 1 1 1 1 1 1 1 1 1 1 1 1 1
3 3 3 3 3 3 3 3 3 2 2 1 0 1 2 2 3 3 4 4 4 3 2 2 2 2 2 2 1 1 1 1 1 1 1 1 1 1 2 2 2 2 2
3 3 3 3 3 3 3 3 3 3 3 2 1 1 2 3 3 4 4 5 4 4 4 3 3 3 3 2 2 1 1 1 1 1 2 2 2 2 2 3 3 3 3
3 3 3 3 3 2 2 3 3 2 2 1 1 2 3 3 4 4 4 4 4 4 4 4 4 4 3 3 2 2 2 2 2 2 3 3 3 3 4 4 4 5 5
3 2 2 2 2 1 2 2 2 1 0 0 0 1 2 3 3 4 4 4 4 4 4 4 4 4 4 3 3 3 3 3 3 4 4 4 4 4 5 5 5 5 5
2 2 2 1 1 1 1 1 1 0 -0 -1 -0 0 1 2 3 4 4 4 4 4 4 3 3 3 3 3 3 3 3 3 4 4 4 4 5 5 5 5 5 5 5
2 2 1 1 1 1 0 0 0 -0 -0 -1 -1 -0 0 1 2 3 3 3 3 3 3 3 3 3 3 3 3 3 3 3 4 4 4 4 4 4 4 4 4 5 5
2 2 1 1 1 1 0 0 0 -0 -1 -1 -1 -1 -0 0 1 1 1 2 2 3 3 3 3 3 3 3 3 3 3 3 3 4 4 4 3 4 4 4 5 5 6
3 3 2 1 1 1 0 0 -0 -0 -1 -1 -1 -1 -1 -0 0 1 1 1 2 2 3 3 3 3 3 3 3 3 3 3 3 4 4 4 4 4 5 5 5 5 6